Location: La Silve
(44.2414°N, 5.8889°E)
Time: 10:01:10
(UTC+00:00)

Cosmos 2228 Rocket - Pass Details

Date: 01 December 2020
Orbit: 618 x 652 km, 82.5° (Epoch: 25 January)

Event Time Altitude Azimuth Distance (km) Brightness Sun altitude
Rises 17:25:47 0° 168° (SSE) 2,948 6.6 -15.1°
Reaches altitude 10° 17:28:07 10° 160° (SSE) 2,039 5.7 -15.5°
Maximum altitude 17:32:21 40° 92° (E) 955 3.5 -16.3°
Enters shadow 17:34:33 24° 38° (NE) 1,344 4.3 -16.6°
